Weather History for Edinburg, TX

Change the Weather History Date:

Monday, January 7, 2013

  Actual Average (KMFE) Record (KMFE)
Temperature  
Mean Temperature 57 °F 60 °F  
Max Temperature 69 °F 70 °F 89 °F (2008)
Min Temperature 45 °F 50 °F 28 °F (1907)
Degree Days  
Heating Degree Days 8 7  
Month to date heating degree days 49  
Since 1 July heating degree days 286  
Cooling Degree Days 0 2  
Month to date cooling degree days 14  
Year to date cooling degree days 14  
Growing Degree Days 7 (Base 50)    
Moisture  
Dew Point 49 °F    
Average Humidity 73    
Maximum Humidity 87    
Minimum Humidity 51    
Precipitation  
Precipitation 0.06 in 0.03 in 0.53 in (1986)
Month to date precipitation 0.22  
Year to date precipitation 0.22  
Sea Level Pressure  
Sea Level Pressure 30.16 in    
Wind  
Wind Speed 4 mph (NE)    
Max Wind Speed 12 mph    
Max Gust Speed -    
Visibility 6 miles    
Events      
T = Trace of Precipitation, MM = Missing Value Source: NWS Daily Summary

Daily Weather History Graph

Daily Weather History Graph

Search for Another Location

Airport:

Trip Planner

Search our weather history database for the weather conditions in past years. The results will help you decide how hot, cold, wet, or windy it might be!

Date:

Astronomy

Jan. 07, 2013 Rise Set
Actual Time 7:21 AM CST 5:56 PM CST
Civil Twilight 6:56 AM CST 6:21 PM CST
Nautical Twilight 6:28 AM CST 6:50 PM CST
Astronomical Twilight 5:59 AM CST 7:18 PM CST
Moon 2:53 AM CST (1/7) 2:03 PM CST (1/7)
Length of Visible Light 11h 24m
Length of Day
10h 34m
Waning Crescent, 22% of the Moon is Illuminated
Jan 7
Waning Crescent
Jan 11
New
Jan 18
First Quarter
Jan 26
Full
Feb 3
Last Quarter

Hourly Weather History & Observations

Time (CST) Temp. Windchill Dew Point Humidity Pressure Visibility Wind Dir Wind Speed Gust Speed Precip Events Conditions
12:35 AM 49.1 °F - 44.8 °F 85% 30.31 in 7.0 mi Calm Calm - N/A   Overcast
12:55 AM 49.8 °F - 45.0 °F 83% 30.30 in 7.0 mi Calm Calm - N/A   Mostly Cloudy
1:15 AM 49.5 °F - 45.3 °F 86% 30.29 in 7.0 mi Calm Calm - N/A   Overcast
1:35 AM 50.0 °F - 45.5 °F 85% 30.29 in 5.0 mi NNW 3.5 mph - N/A   Overcast
1:55 AM 50.0 °F - 45.1 °F 83% 30.28 in 7.0 mi Calm Calm - N/A   Overcast
2:15 AM 49.3 °F - 45.0 °F 85% 30.27 in 7.0 mi Calm Calm - N/A   Overcast
2:35 AM 49.1 °F - 44.8 °F 85% 30.26 in 7.0 mi NNW 3.5 mph - N/A   Scattered Clouds
2:55 AM 49.3 °F - 45.5 °F 87% 30.27 in 7.0 mi NW 5.8 mph - N/A   Mostly Cloudy
3:15 AM 49.6 °F - 45.7 °F 86% 30.27 in 5.0 mi NNW 4.6 mph - N/A   Overcast
3:35 AM 50.0 °F - 46.0 °F 86% 30.27 in 7.0 mi North 3.5 mph - N/A   Overcast
3:55 AM 50.0 °F - 45.7 °F 85% 30.27 in 5.0 mi North 4.6 mph - N/A   Overcast
4:15 AM 50.0 °F - 44.8 °F 82% 30.26 in 7.0 mi North 4.6 mph - N/A   Overcast
4:35 AM 49.8 °F - 44.2 °F 81% 30.24 in 7.0 mi North 3.5 mph - N/A   Overcast
4:55 AM 49.6 °F - 43.5 °F 79% 30.24 in 7.0 mi Calm Calm - N/A   Overcast
5:15 AM 48.4 °F - 42.8 °F 81% 30.23 in 7.0 mi North 4.6 mph - N/A   Scattered Clouds
5:35 AM 47.5 °F - 42.8 °F 84% 30.23 in 5.0 mi North 5.8 mph - N/A   Haze
5:55 AM 46.8 °F - 42.3 °F 84% 30.23 in 7.0 mi North 3.5 mph - N/A   Clear
6:15 AM 46.4 °F 44.3 °F 41.9 °F 84% 30.23 in 5.0 mi North 4.6 mph - N/A   Scattered Clouds
6:35 AM 45.9 °F 42.3 °F 41.9 °F 86% 30.23 in 5.0 mi North 6.9 mph - N/A   Scattered Clouds
6:55 AM 45.5 °F - 41.4 °F 85% 30.22 in 5.0 mi Calm Calm - N/A   Clear
7:15 AM 45.5 °F - 41.4 °F 85% 30.23 in 7.0 mi Calm Calm - N/A   Clear
7:35 AM 45.3 °F 44.0 °F 41.2 °F 85% 30.23 in 5.0 mi North 3.5 mph - N/A   Clear
7:55 AM 45.3 °F 44.0 °F 41.5 °F 87% 30.24 in 5.0 mi North 3.5 mph - 0.06 in   Unknown
8:15 AM 46.8 °F - 42.3 °F 84% 30.25 in 4.0 mi North 5.8 mph - N/A   Haze
8:35 AM 48.0 °F - 42.4 °F 81% 30.25 in 5.0 mi North 6.9 mph - N/A   Haze
8:55 AM 48.9 °F - 43.2 °F 80% 30.24 in 4.0 mi North 5.8 mph - N/A   Haze
9:35 AM 52.3 °F - 44.8 °F 75% 30.25 in 5.0 mi North 4.6 mph - N/A   Haze
10:15 AM 56.5 °F - 46.8 °F 70% 30.25 in 5.0 mi North 4.6 mph - N/A   Haze
10:35 AM 58.1 °F - 47.1 °F 67% 30.25 in 7.0 mi North 4.6 mph - N/A   Clear
10:55 AM 59.2 °F - 47.7 °F 66% 30.24 in 7.0 mi North 4.6 mph - N/A   Clear
11:15 AM 60.8 °F - 47.7 °F 62% 30.23 in 5.0 mi North 4.6 mph - N/A   Haze
11:55 AM 64.2 °F - 48.6 °F 57% 30.19 in 5.0 mi NE 5.8 mph - N/A   Haze
12:15 PM 64.9 °F - 48.7 °F 56% 30.17 in 7.0 mi NE 4.6 mph - N/A   Clear
12:55 PM 66.7 °F - 49.5 °F 54% 30.12 in 7.0 mi East 4.6 mph - N/A   Clear
1:15 PM 68.5 °F - 49.8 °F 51% 30.11 in 7.0 mi ENE 10.4 mph - N/A   Scattered Clouds
1:35 PM 67.8 °F - 50.0 °F 53% 30.11 in 7.0 mi ENE 3.5 mph - N/A   Mostly Cloudy
1:55 PM 67.6 °F - 50.2 °F 54% 30.10 in 7.0 mi SE 4.6 mph - N/A   Overcast
2:15 PM 68.2 °F - 50.2 °F 53% 30.09 in 7.0 mi SSE 6.9 mph - N/A   Overcast
2:35 PM 68.2 °F - 50.5 °F 53% 30.08 in 7.0 mi ESE 9.2 mph - N/A   Overcast
2:55 PM 68.5 °F - 50.9 °F 53% 30.07 in 7.0 mi SSE 5.8 mph - N/A   Overcast
3:15 PM 68.9 °F - 50.9 °F 53% 30.07 in 5.0 mi SE 5.8 mph - N/A   Haze
3:55 PM 69.1 °F - 51.3 °F 53% 30.06 in 5.0 mi ESE 11.5 mph - N/A   Haze
4:15 PM 68.7 °F - 51.4 °F 54% 30.06 in 7.0 mi East 10.4 mph - N/A   Overcast
4:55 PM 68.0 °F - 52.5 °F 58% 30.06 in 7.0 mi ESE 11.5 mph - N/A   Overcast
5:15 PM 67.8 °F - 52.9 °F 59% 30.05 in 7.0 mi East 10.4 mph - N/A   Overcast
5:35 PM 67.3 °F - 52.9 °F 60% 30.05 in 7.0 mi East 9.2 mph - N/A   Overcast
5:55 PM 66.7 °F - 53.1 °F 61% 30.06 in 7.0 mi East 9.2 mph - N/A   Overcast
6:15 PM 66.4 °F - 53.6 °F 63% 30.05 in 10.0 mi East 8.1 mph - N/A   Overcast
6:35 PM 66.2 °F - 54.1 °F 65% 30.05 in 7.0 mi East 6.9 mph - N/A   Overcast
6:55 PM 66.0 °F - 54.1 °F 65% 30.06 in 7.0 mi East 5.8 mph - N/A   Overcast
7:15 PM 65.7 °F - 54.5 °F 67% 30.05 in 7.0 mi East 5.8 mph - N/A   Overcast
7:35 PM 65.3 °F - 54.5 °F 68% 30.06 in 10.0 mi ENE 4.6 mph - N/A   Overcast
7:55 PM 64.8 °F - 55.0 °F 71% 30.06 in 10.0 mi NE 5.8 mph - N/A   Overcast
8:15 PM 63.9 °F - 55.8 °F 75% 30.05 in 7.0 mi ENE 4.6 mph - N/A   Overcast
8:55 PM 63.5 °F - 55.8 °F 76% 30.05 in 7.0 mi NE 5.8 mph - N/A   Overcast
9:15 PM 63.3 °F - 55.8 °F 76% 30.05 in 7.0 mi ENE 3.5 mph - N/A   Overcast
9:35 PM 62.8 °F - 55.9 °F 78% 30.04 in 7.0 mi ENE 5.8 mph - N/A   Overcast
9:55 PM 62.6 °F - 56.3 °F 80% 30.04 in 7.0 mi NE 4.6 mph - N/A   Overcast
10:35 PM 61.9 °F - 56.7 °F 83% 30.02 in 7.0 mi ENE 5.8 mph - N/A   Overcast
10:55 PM 61.9 °F - 56.8 °F 84% 30.01 in 7.0 mi ENE 5.8 mph - N/A   Overcast
11:15 PM 61.7 °F - 57.0 °F 85% 30.01 in 7.0 mi ENE 3.5 mph - N/A   Overcast
11:35 PM 61.3 °F - 56.8 °F 85% 30.00 in 7.0 mi Calm Calm - N/A   Overcast
11:55 PM 61.0 °F - 56.8 °F 86% 29.99 in 5.0 mi Calm Calm - N/A   Scattered Clouds